EW9519 Kungalv SE current weather conditions

sailwx.info

Wind from 203 at 1 knots gusting 5

Air temperature 15.6° C
Dewpoint 10.7° C

Last reported at 2020-Jul-11 19:04 UTC.
Time now 2020-Jul-11 20:17 UTC

Location: N 57°50' E 011°52'.
View on Google Maps.

See reports from other nearby stations

  
Tides and Currents Weather Stations Pressure Air Temp Water Temp Dewpoint Dewpoint Depression Visibility Wind Speed Wind Dir Waves Ship Positions
date/time (UTC)wind fromknots sea level pressurealtimeterstation pressurevisibilityair tempwater tempwave heightnotes
2020-Jul-11 20:04 270 2 gusting 6 14.4
2020-Jul-11 19:59 203 5 gusting 5 14.4
2020-Jul-11 19:54 135 3 gusting 8 14.4
2020-Jul-11 19:49 225 2 gusting 5 15.0
2020-Jul-11 19:44 180 3 gusting 6 15.0
2020-Jul-11 19:39 248 3 gusting 6 15.0
2020-Jul-11 19:34 248 6 gusting 9 15.0
2020-Jul-11 19:29 180 6 gusting 6 15.0
2020-Jul-11 19:24 225 3 gusting 6 15.0
2020-Jul-11 19:19 248 1 gusting 5 15.0
2020-Jul-11 19:14 248 4 gusting 7 15.0
2020-Jul-11 19:09 158 15.6
2020-Jul-11 19:04 203 1 gusting 5 15.6
2020-Jul-11 18:59 203 3 gusting 4 15.6
2020-Jul-11 18:54 180 4 gusting 10 15.6
2020-Jul-11 18:49 225 2 gusting 6 15.6
2020-Jul-11 18:44 248 1 gusting 5 15.6
2020-Jul-11 18:39 248 2 gusting 7 15.6
2020-Jul-11 18:34 203 3 gusting 6 15.6
2020-Jul-11 18:29 248 6 gusting 6 15.6
2020-Jul-11 18:24 203 2 gusting 7 15.6
2020-Jul-11 18:19 113 15.6
2020-Jul-11 18:14 293 3 gusting 6 15.6
2020-Jul-11 18:09 225 5 gusting 7 15.6
2020-Jul-11 18:04 225 5 gusting 5 15.6
2020-Jul-11 17:59 248 4 gusting 6 16.1
2020-Jul-11 17:54 023 4 gusting 6 16.1
2020-Jul-11 17:49 248 2 gusting 7 16.7
2020-Jul-11 17:44 338 5 gusting 5 16.7
2020-Jul-11 17:39 203 4 gusting 8 16.7
2020-Jul-11 17:34 248 5 gusting 6 16.7
2020-Jul-11 17:29 068 1 gusting 6 16.7
2020-Jul-11 17:24 270 5 gusting 9 17.2
2020-Jul-11 17:19 248 4 gusting 6 17.2
2020-Jul-11 17:14 338 3 gusting 4 17.2
2020-Jul-11 17:09 270 5 gusting 10 17.2
2020-Jul-11 17:04 158 5 gusting 8 17.8
2020-Jul-11 16:59 225 3 gusting 4 17.8
2020-Jul-11 16:54 270 3 gusting 6 17.8
2020-Jul-11 16:49 338 6 gusting 6 17.8
2020-Jul-11 16:44 203 4 gusting 6 18.3
2020-Jul-11 16:39 248 3 gusting 7 18.3
2020-Jul-11 16:34 293 4 gusting 8 18.3
2020-Jul-11 16:29 293 6 gusting 7 18.3
2020-Jul-11 16:24 225 6 gusting 7 18.3
2020-Jul-11 16:19 203 4 gusting 6 18.3
2020-Jul-11 16:14 225 5 gusting 13 18.3
2020-Jul-11 16:09 203 3 gusting 8 18.9
2020-Jul-11 16:04 248 4 gusting 9 18.9
2020-Jul-11 15:59 225 3 gusting 6 18.9
2020-Jul-11 15:54 270 6 gusting 8 18.3
2020-Jul-11 15:49 270 3 gusting 8 18.3
2020-Jul-11 15:44 248 7 gusting 7 18.3
2020-Jul-11 15:39 248 4 gusting 7 18.3
2020-Jul-11 15:34 248 6 gusting 9 18.3
2020-Jul-11 15:29 225 7 gusting 11 18.3
2020-Jul-11 15:24 203 6 gusting 11 18.9
2020-Jul-11 15:19 203 4 gusting 5 18.3
2020-Jul-11 15:14 203 3 gusting 6 18.3
2020-Jul-11 15:09 203 6 gusting 6 18.9
2020-Jul-11 15:04 225 4 gusting 6 17.8
2020-Jul-11 14:59 225 5 gusting 13 18.3
2020-Jul-11 14:54 225 6 gusting 10 18.9
2020-Jul-11 14:49 203 5 gusting 7 19.4
2020-Jul-11 14:44 293 5 gusting 6 18.9
2020-Jul-11 14:39 270 4 gusting 7 18.9
2020-Jul-11 14:34 225 5 gusting 8 19.4
2020-Jul-11 14:29 248 4 gusting 5 19.4
2020-Jul-11 14:24 068 2 gusting 6 18.3
2020-Jul-11 14:19 158 5 gusting 7 18.9
2020-Jul-11 14:14 248 2 gusting 4 18.3
2020-Jul-11 14:09 270 2 gusting 9 18.9
2020-Jul-11 14:04 113 4 gusting 6 18.9
2020-Jul-11 13:59 180 5 gusting 11 18.9
2020-Jul-11 13:54 135 2 gusting 4 18.9
2020-Jul-11 13:49 338 4 gusting 10 18.9
2020-Jul-11 13:44 293 0 gusting 8 18.3
2020-Jul-11 13:39 293 7 gusting 11 19.4
2020-Jul-11 13:34 248 4 gusting 6 19.4
2020-Jul-11 13:29 248 3 gusting 10 19.4
2020-Jul-11 13:24 203 5 gusting 6 19.4
2020-Jul-11 13:19 248 3 gusting 6 19.4
2020-Jul-11 13:14 203 5 gusting 6 18.9
2020-Jul-11 13:09 203 5 gusting 8 18.9
2020-Jul-11 13:04 225 6 gusting 9 18.9
2020-Jul-11 12:59 225 2 gusting 7 18.9
2020-Jul-11 12:54 248 3 gusting 6 18.9
2020-Jul-11 12:49 248 5 gusting 8 18.9
2020-Jul-11 12:44 203 7 gusting 10 18.9
2020-Jul-11 12:39 203 6 gusting 8 18.9
2020-Jul-11 12:34 225 2 gusting 11 18.9
2020-Jul-11 12:29 225 7 gusting 8 18.9
2020-Jul-11 12:24 248 3 gusting 7 18.9
2020-Jul-11 12:19 248 6 gusting 9 18.3
2020-Jul-11 12:14 338 5 gusting 9 18.9
2020-Jul-11 12:09 270 6 gusting 7 18.3
2020-Jul-11 12:04 158 2 gusting 9 18.9
2020-Jul-11 11:59 225 6 gusting 7 18.9
2020-Jul-11 11:54 135 1 gusting 11 18.3
2020-Jul-11 11:49 225 4 gusting 7 18.9
2020-Jul-11 11:44 338 6 gusting 8 18.9
2020-Jul-11 11:39 293 4 gusting 7 18.3
2020-Jul-11 11:34 225 4 gusting 7 18.3
2020-Jul-11 11:29 158 6 gusting 7 18.3
2020-Jul-11 11:24 203 2 gusting 9 18.9
2020-Jul-11 11:19 270 6 gusting 8 18.9
2020-Jul-11 11:14 023 2 gusting 6 18.9
2020-Jul-11 11:09 293 5 gusting 6 18.9
2020-Jul-11 11:04 203 5 gusting 12 18.3
2020-Jul-11 10:59 158 6 gusting 10 18.9
2020-Jul-11 10:54 203 7 gusting 8 18.9
2020-Jul-11 10:49 293 3 gusting 8 18.9
2020-Jul-11 10:44 248 5 gusting 5 18.9
2020-Jul-11 10:39 180 5 gusting 7 18.9
2020-Jul-11 10:34 045 1 gusting 6 18.9
2020-Jul-11 10:29 135 6 gusting 8 18.3
2020-Jul-11 10:24 203 6 gusting 8 18.9
2020-Jul-11 10:19 203 3 gusting 6 18.9
2020-Jul-11 10:14 293 5 gusting 8 18.9
2020-Jul-11 10:09 248 4 gusting 9 18.9
2020-Jul-11 10:04 203 6 gusting 6 18.9
2020-Jul-11 09:59 293 8 gusting 13 18.9
2020-Jul-11 09:54 248 5 gusting 11 18.9
2020-Jul-11 09:49 203 5 gusting 9 18.3
2020-Jul-11 09:44 293 1 gusting 5 18.3
2020-Jul-11 09:39 203 4 gusting 8 18.3
2020-Jul-11 09:34 248 3 gusting 9 18.3
2020-Jul-11 09:29 158 6 gusting 9 18.9
2020-Jul-11 09:24 158 1 gusting 4 19.4
2020-Jul-11 09:19 203 5 gusting 5 18.9
2020-Jul-11 09:14 248 1 gusting 5 18.9
2020-Jul-11 09:09 293 3 gusting 6 18.9
2020-Jul-11 09:04 225 5 gusting 6 18.3
2020-Jul-11 08:59 248 3 gusting 6 17.8
2020-Jul-11 08:54 203 6 gusting 8 18.3
2020-Jul-11 08:49 203 4 gusting 6 18.3
2020-Jul-11 08:44 248 3 gusting 6 18.3
2020-Jul-11 08:39 203 2 gusting 6 18.3
2020-Jul-11 08:34 203 4 gusting 11 18.3
2020-Jul-11 08:29 203 2 gusting 6 18.3
2020-Jul-11 08:24 158 6 gusting 10 18.3
2020-Jul-11 08:19 225 7 gusting 7 18.3
2020-Jul-11 08:14 293 5 gusting 10 18.3
2020-Jul-11 08:09 203 9 gusting 13 18.3
2020-Jul-11 08:04 225 5 gusting 6 18.3
2020-Jul-11 07:59 023 5 gusting 6 18.3
2020-Jul-11 07:54 248 3 gusting 6 18.3
2020-Jul-11 07:49 225 3 gusting 5 18.3
2020-Jul-11 07:44 113 6 gusting 6 18.3
2020-Jul-11 07:39 180 4 gusting 10 18.3
2020-Jul-11 07:34 225 5 gusting 8 18.9
2020-Jul-11 07:29 225 2 gusting 6 18.9
2020-Jul-11 07:24 203 2 gusting 5 18.9
2020-Jul-11 07:19 225 5 gusting 7 18.9
2020-Jul-11 07:14 248 3 gusting 9 18.9
2020-Jul-11 07:09 225 2 gusting 6 19.4
2020-Jul-11 07:04 158 4 gusting 4 18.9
2020-Jul-11 06:59 113 0 gusting 5 18.9
2020-Jul-11 06:54 158 3 gusting 6 17.8
2020-Jul-11 06:49 180 3 gusting 8 17.8
2020-Jul-11 06:44 225 4 gusting 5 17.2
2020-Jul-11 06:39 203 4 gusting 6 15.6
2020-Jul-11 06:34 023 2 gusting 4 15.0
2020-Jul-11 06:29 293 3 gusting 3 15.0
2020-Jul-11 06:24 225 1 gusting 6 15.6
2020-Jul-11 06:19 225 4 gusting 5 16.1
2020-Jul-11 06:14 203 3 gusting 5 16.7
2020-Jul-11 06:09 293 0 gusting 5 17.2
2020-Jul-11 06:04 225 3 gusting 6 17.8
2020-Jul-11 05:59 225 4 gusting 6 18.3
2020-Jul-11 05:54 203 0 gusting 3 18.3
2020-Jul-11 05:49 315 17.8
2020-Jul-11 05:44 158 17.2
2020-Jul-11 05:39 203 2 gusting 4 17.2
2020-Jul-11 05:34 203 0 gusting 2 17.2
2020-Jul-11 05:29 158 17.8
2020-Jul-11 05:24 203 1 gusting 3 17.8
2020-Jul-11 05:19 293 2 gusting 3 18.3
2020-Jul-11 05:14 203 1 gusting 2 18.9
2020-Jul-11 05:09 225 1 gusting 2 18.3
2020-Jul-11 05:04 270 17.8
2020-Jul-11 04:59 203 0 gusting 1 17.8
2020-Jul-11 04:54 270 17.2
2020-Jul-11 04:49 293 0 gusting 2 17.2
2020-Jul-11 04:44 225 16.7
2020-Jul-11 04:39 293 16.7
2020-Jul-11 04:34 158 16.1
2020-Jul-11 04:29 113 15.6
2020-Jul-11 04:24 225 14.4
2020-Jul-11 04:19 338 13.9
2020-Jul-11 04:14 338 13.3
2020-Jul-11 04:09 203 12.8
2020-Jul-11 04:04 203 11.7
2020-Jul-11 03:59 248 10.6
2020-Jul-11 03:54 248 10.6
2020-Jul-11 03:49 248 10.6
2020-Jul-11 03:44 248 10.0
2020-Jul-11 03:39 248 10.0
2020-Jul-11 03:34 248 10.6
2020-Jul-11 03:29 248 10.6
2020-Jul-11 03:24 248 10.6
2020-Jul-11 03:19 248 9.4
2020-Jul-11 03:14 248 9.4
2020-Jul-11 03:09 248 8.9
2020-Jul-11 03:04 248 8.9
2020-Jul-11 02:59 248 8.3
2020-Jul-11 02:54 248 8.3
2020-Jul-11 02:49 248 8.3
2020-Jul-11 02:44 248 8.3
2020-Jul-11 02:39 248 8.3
2020-Jul-11 02:34 248 8.3
2020-Jul-11 02:29 248 8.3
2020-Jul-11 02:24 248 8.3
2020-Jul-11 02:19 248 8.3
2020-Jul-11 02:14 248 8.3
2020-Jul-11 02:09 248 8.3
2020-Jul-11 02:04 248 8.9
2020-Jul-11 01:59 248 8.9
2020-Jul-11 01:54 248 8.9
2020-Jul-11 01:49 248 8.9
2020-Jul-11 01:44 248 8.9
2020-Jul-11 01:39 248 8.9
2020-Jul-11 01:34 248 8.9
2020-Jul-11 01:29 248 8.9
2020-Jul-11 01:24 270 8.9
2020-Jul-11 01:19 248 8.3
2020-Jul-11 01:14 248 8.3
2020-Jul-11 01:09 248 8.3
2020-Jul-11 00:59 248 8.3
2020-Jul-11 00:54 248 8.3
2020-Jul-11 00:49 248 8.3
2020-Jul-11 00:44 248 8.9
2020-Jul-11 00:39 248 8.9
2020-Jul-11 00:34 225 8.9
2020-Jul-11 00:29 225 8.9
2020-Jul-11 00:24 225 8.9
2020-Jul-11 00:19 225 8.9
2020-Jul-11 00:14 225 8.9
2020-Jul-11 00:09 225 8.9
2020-Jul-11 00:04 225 8.9
2020-Jul-10 23:59 225 8.9
2020-Jul-10 23:54 225 9.4
2020-Jul-10 23:49 225 9.4
2020-Jul-10 23:44 203 9.4
2020-Jul-10 23:39 203 9.4
2020-Jul-10 23:34 203 9.4
2020-Jul-10 23:29 203 9.4
2020-Jul-10 23:24 203 9.4
2020-Jul-10 23:19 293 0 gusting 0 9.4
2020-Jul-10 23:14 203 9.4
2020-Jul-10 23:09 293 9.4
2020-Jul-10 23:04 203 8.9
2020-Jul-10 22:59 203 8.9
2020-Jul-10 22:54 225 8.9
2020-Jul-10 22:49 180 8.3
2020-Jul-10 22:44 203 8.3
2020-Jul-10 22:39 248 8.3
2020-Jul-10 22:34 248 8.3
2020-Jul-10 22:29 248 8.3
2020-Jul-10 22:24 248 8.3
2020-Jul-10 22:19 248 8.3
2020-Jul-10 22:14 248 8.9
2020-Jul-10 22:09 248 8.9
2020-Jul-10 22:04 248 8.9
2020-Jul-10 21:59 248 8.9
2020-Jul-10 21:54 248 8.9
2020-Jul-10 21:49 248 9.4
2020-Jul-10 21:44 248 9.4
2020-Jul-10 21:39 248 9.4
2020-Jul-10 21:34 248 9.4
2020-Jul-10 21:29 248 10.0
2020-Jul-10 21:24 248 10.0
2020-Jul-10 21:19 248 10.0
2020-Jul-10 21:14 248 10.0
2020-Jul-10 21:09 248 10.0
2020-Jul-10 21:04 248 10.0
2020-Jul-10 20:59 248 10.0
2020-Jul-10 20:54 248 10.0
2020-Jul-10 20:49 248 10.0
2020-Jul-10 20:44 248 10.0
2020-Jul-10 20:39 248 10.6
2020-Jul-10 20:34 248 10.6
2020-Jul-10 20:29 248 10.6
2020-Jul-10 20:24 248 11.1
2020-Jul-10 20:19 248 11.1
2020-Jul-10 20:14 248 11.7
2020-Jul-10 20:09 248 11.7
2020-Jul-10 20:04 248 12.2
2020-Jul-10 19:59 248 12.2
2020-Jul-10 19:54 248 12.8
2020-Jul-10 19:49 248 12.8
2020-Jul-10 19:44 248 12.8
2020-Jul-10 19:39 248 13.3
2020-Jul-10 19:34 248 13.3
2020-Jul-10 19:29 248 13.3
2020-Jul-10 19:24 248 13.9
2020-Jul-10 19:19 248 13.9
2020-Jul-10 19:14 248 13.9
2020-Jul-10 19:09 248 14.4
2020-Jul-10 19:04 248 14.4
2020-Jul-10 18:59 248 14.4
2020-Jul-10 18:54 248 15.0
2020-Jul-10 18:49 248 15.0
2020-Jul-10 18:44 248 15.0
2020-Jul-10 18:39 248 15.0
2020-Jul-10 18:34 248 15.0
2020-Jul-10 18:29 315 15.6
2020-Jul-10 18:24 225 15.6
2020-Jul-10 18:19 270 15.6
2020-Jul-10 18:14 293 15.6
2020-Jul-10 18:09 338 16.1
2020-Jul-10 18:04 248 16.1
2020-Jul-10 17:59 180 16.1
2020-Jul-10 17:54 203 1 gusting 2 16.7
2020-Jul-10 17:49 293 0 gusting 2 16.7
2020-Jul-10 17:44 338 0 gusting 1 16.7
2020-Jul-10 17:39 225 16.7
2020-Jul-10 17:34 203 3 gusting 4 16.7
2020-Jul-10 17:29 293 0 gusting 1 16.7
2020-Jul-10 17:24 225 16.1
2020-Jul-10 17:19 203 2 gusting 4 16.7
2020-Jul-10 17:14 203 0 gusting 5 16.1
2020-Jul-10 17:09 293 1 gusting 2 16.1
2020-Jul-10 17:04 248 1 gusting 3 16.1
2020-Jul-10 16:59 203 3 gusting 4 16.1
2020-Jul-10 16:54 338 16.1
2020-Jul-10 16:49 203 4 gusting 6 16.1
2020-Jul-10 16:44 248 0 gusting 3 16.1
2020-Jul-10 16:39 113 2 gusting 3 16.1
2020-Jul-10 16:34 158 3 gusting 4 16.1
2020-Jul-10 16:29 203 0 gusting 4 16.7
2020-Jul-10 16:24 158 0 gusting 3 16.7
2020-Jul-10 16:19 293 1 gusting 3 16.7
2020-Jul-10 16:14 225 16.7
2020-Jul-10 16:09 203 0 gusting 3 16.7
2020-Jul-10 16:04 203 16.7
2020-Jul-10 15:59 225 1 gusting 4 16.7
2020-Jul-10 15:54 203 2 gusting 2 16.7
2020-Jul-10 15:49 225 2 gusting 3 16.7
2020-Jul-10 15:44 158 0 gusting 3 16.7
2020-Jul-10 15:39 248 17.2
2020-Jul-10 15:34 225 2 gusting 2 17.2
2020-Jul-10 15:29 225 2 gusting 4 17.2
2020-Jul-10 15:24 203 17.8
2020-Jul-10 15:19 158 2 gusting 6 17.8
2020-Jul-10 15:14 158 2 gusting 3 17.8
2020-Jul-10 15:09 158 2 gusting 5 18.3
2020-Jul-10 15:04 203 3 gusting 4 18.3
2020-Jul-10 14:59 158 1 gusting 5 18.3
2020-Jul-10 14:54 270 3 gusting 6 18.3
2020-Jul-10 14:49 203 2 gusting 2 18.3
2020-Jul-10 14:44 180 2 gusting 5 18.3
2020-Jul-10 14:39 203 4 gusting 4 18.3
2020-Jul-10 14:34 203 2 gusting 5 18.3
2020-Jul-10 14:29 270 2 gusting 2 18.3
2020-Jul-10 14:24 203 5 gusting 8 18.9
2020-Jul-10 14:19 248 0 gusting 4 18.9
2020-Jul-10 14:14 248 3 gusting 5 19.4
2020-Jul-10 14:09 225 3 gusting 5 20.0
2020-Jul-10 14:04 158 0 gusting 4 20.6
2020-Jul-10 13:59 270 1 gusting 3 21.7
2020-Jul-10 13:54 158 2 gusting 3 21.7
2020-Jul-10 13:49 135 21.1
2020-Jul-10 13:44 225 0 gusting 2 21.1
2020-Jul-10 13:39 135 2 gusting 3 21.7
2020-Jul-10 13:34 248 1 gusting 4 21.7
2020-Jul-10 13:29 293 0 gusting 1 21.7
2020-Jul-10 13:24 158 1 gusting 4 21.1
2020-Jul-10 13:19 248 0 gusting 5 21.1
2020-Jul-10 13:14 225 3 gusting 5 21.7
2020-Jul-10 13:09 225 1 gusting 2 21.7
2020-Jul-10 13:04 203 3 gusting 5 21.1
2020-Jul-10 12:59 158 5 gusting 5 20.6
2020-Jul-10 12:54 248 2 gusting 2 20.6
2020-Jul-10 12:49 248 3 gusting 5 20.6
2020-Jul-10 12:44 158 1 gusting 5 21.1
2020-Jul-10 12:39 248 2 gusting 3 20.6
2020-Jul-10 12:34 203 1 gusting 2 20.6
2020-Jul-10 12:29 225 1 gusting 4 20.6
2020-Jul-10 12:24 158 1 gusting 4 19.4
2020-Jul-10 12:19 158 3 gusting 4 19.4
2020-Jul-10 12:14 203 3 gusting 5 19.4
2020-Jul-10 12:09 113 2 gusting 5 18.9
2020-Jul-10 12:04 180 1 gusting 5 18.3
2020-Jul-10 11:59 248 3 gusting 6 18.9
2020-Jul-10 11:54 248 1 gusting 5 18.9
2020-Jul-10 11:49 158 3 gusting 7 19.4
2020-Jul-10 11:44 225 5 gusting 5 19.4
2020-Jul-10 11:39 045 0 gusting 4 20.0
2020-Jul-10 11:34 225 0 gusting 5 20.0
2020-Jul-10 11:29 203 1 gusting 6 19.4
2020-Jul-10 11:24 158 2 gusting 6 19.4
2020-Jul-10 11:19 203 4 gusting 5 20.6
2020-Jul-10 11:14 225 1 gusting 3 20.0
2020-Jul-10 11:09 248 2 gusting 5 20.0
2020-Jul-10 11:04 248 2 gusting 8 20.0
2020-Jul-10 10:59 338 20.0
2020-Jul-10 10:54 338 1 gusting 3 20.0
2020-Jul-10 10:49 225 2 gusting 3 20.0
2020-Jul-10 10:44 023 2 gusting 5 20.0
2020-Jul-10 10:39 158 4 gusting 4 20.0
2020-Jul-10 10:34 248 1 gusting 4 20.0
2020-Jul-10 10:29 225 2 gusting 3 20.0
2020-Jul-10 10:24 203 19.4
2020-Jul-10 10:19 225 4 gusting 6 18.9
2020-Jul-10 10:14 203 2 gusting 4 18.9
2020-Jul-10 10:09 203 2 gusting 2 19.4
2020-Jul-10 10:04 090 1 gusting 3 19.4
2020-Jul-10 09:59 135 2 gusting 4 20.0
2020-Jul-10 09:54 293 2 gusting 3 20.0
2020-Jul-10 09:49 180 0 gusting 6 19.4
2020-Jul-10 09:44 248 2 gusting 3 20.0
2020-Jul-10 09:39 158 0 gusting 5 20.0
2020-Jul-10 09:34 248 1 gusting 3 19.4
2020-Jul-10 09:29 203 1 gusting 3 19.4
2020-Jul-10 09:24 203 3 gusting 4 19.4
2020-Jul-10 09:19 248 2 gusting 4 20.6
2020-Jul-10 09:14 293 2 gusting 4 21.7
2020-Jul-10 09:09 158 2 gusting 3 21.7
2020-Jul-10 09:04 090 0 gusting 1 21.1
2020-Jul-10 08:59 203 1 gusting 2 20.6
2020-Jul-10 08:54 113 0 gusting 3 20.6
2020-Jul-10 08:49 180 2 gusting 3 20.0
2020-Jul-10 08:44 203 0 gusting 4 20.0
2020-Jul-10 08:39 180 1 gusting 6 20.6
2020-Jul-10 08:34 158 3 gusting 5 21.1
2020-Jul-10 08:29 158 20.6
2020-Jul-10 08:24 203 1 gusting 2 20.6
2020-Jul-10 08:19 113 2 gusting 2 20.0
2020-Jul-10 08:14 180 0 gusting 2 19.4
2020-Jul-10 08:09 225 2 gusting 6 18.9
2020-Jul-10 08:04 113 2 gusting 3 18.9
2020-Jul-10 07:59 248 2 gusting 2 19.4
2020-Jul-10 07:54 203 2 gusting 3 19.4
2020-Jul-10 07:49 338 3 gusting 5 18.9
2020-Jul-10 07:44 068 2 gusting 5 18.3
2020-Jul-10 07:39 158 3 gusting 5 17.8
2020-Jul-10 07:34 180 16.7
2020-Jul-10 07:29 203 17.2
2020-Jul-10 07:24 203 0 gusting 5 17.8
2020-Jul-10 07:19 158 1 gusting 2 17.8
2020-Jul-10 07:14 113 2 gusting 3 17.8
2020-Jul-10 07:09 270 17.8
2020-Jul-10 07:04 113 2 gusting 3 18.3
2020-Jul-10 06:59 225 18.3
2020-Jul-10 06:54 158 18.3
2020-Jul-10 06:49 068 3 gusting 4 19.4
2020-Jul-10 06:44 068 18.9
2020-Jul-10 06:39 090 0 gusting 3 18.9
2020-Jul-10 06:34 158 18.9
2020-Jul-10 06:29 180 18.3
2020-Jul-10 06:24 135 0 gusting 2 17.8
2020-Jul-10 06:19 113 0 gusting 1 17.2
2020-Jul-10 06:14 068 17.2
2020-Jul-10 06:09 068 0 gusting 1 17.2
2020-Jul-10 06:04 113 17.2
2020-Jul-10 05:59 113 16.7
2020-Jul-10 05:54 113 1 gusting 2 16.7
2020-Jul-10 05:49 090 16.7
2020-Jul-10 05:44 068 16.1
2020-Jul-10 05:39 068 0 gusting 1 15.6
2020-Jul-10 05:34 113 15.0
2020-Jul-10 05:29 068 0 gusting 2 14.4
2020-Jul-10 05:24 023 1 gusting 1 14.4
2020-Jul-10 05:19 045 0 gusting 2 13.9
2020-Jul-10 05:14 023 1 gusting 2 13.9
2020-Jul-10 05:09 023 0 gusting 0 13.9
2020-Jul-10 05:04 023 13.3
2020-Jul-10 04:59 023 12.2
2020-Jul-10 04:54 023 0 gusting 1 12.2
2020-Jul-10 04:49 023 12.2
2020-Jul-10 04:44 023 2 gusting 2 12.2
2020-Jul-10 04:39 023 1 gusting 2 12.2
2020-Jul-10 04:34 023 12.2
2020-Jul-10 04:29 045 0 gusting 0 11.7
2020-Jul-10 04:24 023 11.7
2020-Jul-10 04:19 023 11.1
2020-Jul-10 04:14 023 10.6
2020-Jul-10 04:09 023 10.0
2020-Jul-10 04:04 023 9.4
2020-Jul-10 03:59 023 9.4
2020-Jul-10 03:54 023 8.9
2020-Jul-10 03:49 023 8.3
2020-Jul-10 03:44 180 7.8
2020-Jul-10 03:39 180 7.2
2020-Jul-10 03:34 180 6.7
2020-Jul-10 03:29 180 7.2
2020-Jul-10 03:24 180 7.2
2020-Jul-10 03:19 180 7.2
2020-Jul-10 03:14 180 7.2
2020-Jul-10 03:09 180 7.2
2020-Jul-10 03:04 180 6.7
2020-Jul-10 02:59 180 6.1
2020-Jul-10 02:54 180 6.7
2020-Jul-10 02:49 180 6.1
2020-Jul-10 02:44 180 6.1
2020-Jul-10 02:39 180 6.1
2020-Jul-10 02:34 180 6.1
2020-Jul-10 02:29 180 6.1
2020-Jul-10 02:24 180 6.7
2020-Jul-10 02:19 180 6.7
2020-Jul-10 02:14 180 6.7
2020-Jul-10 02:09 180 6.7
2020-Jul-10 02:04 068 6.7
2020-Jul-10 01:59 068 6.7
2020-Jul-10 01:54 068 6.7
2020-Jul-10 01:49 068 6.1
2020-Jul-10 01:44 068 6.7
2020-Jul-10 01:39 068 6.7
2020-Jul-10 01:34 068 6.7
2020-Jul-10 01:29 068 6.7
2020-Jul-10 01:24 068 6.7
2020-Jul-10 01:19 068 6.7
2020-Jul-10 01:14 068 6.7
2020-Jul-10 01:09 068 6.7
2020-Jul-10 00:59 180 7.8
2020-Jul-10 00:54 180 7.2
2020-Jul-10 00:49 180 6.7
2020-Jul-10 00:44 180 6.7
2020-Jul-10 00:39 180 6.7
2020-Jul-10 00:34 180 6.7
2020-Jul-10 00:29 180 6.7
2020-Jul-10 00:24 180 7.2
2020-Jul-10 00:19 180 7.2
2020-Jul-10 00:14 180 7.2
2020-Jul-10 00:09 180 7.2
2020-Jul-10 00:04 180 7.8
2020-Jul-09 23:59 180 7.8
2020-Jul-09 23:54 180 7.8
2020-Jul-09 23:49 180 7.8
2020-Jul-09 23:44 180 7.8
2020-Jul-09 23:39 180 7.8
2020-Jul-09 23:34 180 7.8
2020-Jul-09 23:29 180 8.3
2020-Jul-09 23:24 180 7.8
2020-Jul-09 23:19 180 7.8
2020-Jul-09 23:14 180 8.3
2020-Jul-09 23:09 180 8.3
2020-Jul-09 23:04 180 8.3
2020-Jul-09 22:59 180 8.3
2020-Jul-09 22:54 180 8.3
2020-Jul-09 22:49 180 8.9
2020-Jul-09 22:44 180 8.3
2020-Jul-09 22:39 180 8.3
2020-Jul-09 22:34 180 8.9
2020-Jul-09 22:29 180 8.9
2020-Jul-09 22:24 180 8.9
2020-Jul-09 22:19 180 8.9
2020-Jul-09 22:14 180 8.9
2020-Jul-09 22:09 180 8.9
2020-Jul-09 22:04 180 8.9
2020-Jul-09 21:59 180 9.4
2020-Jul-09 21:54 180 9.4
2020-Jul-09 21:49 180 9.4
2020-Jul-09 21:44 180 9.4
2020-Jul-09 21:39 180 9.4
2020-Jul-09 21:34 180 10.0
2020-Jul-09 21:29 180 10.0
2020-Jul-09 21:24 180 10.0
2020-Jul-09 21:19 180 10.0
2020-Jul-09 21:14 180 10.0
2020-Jul-09 21:09 180 10.0
2020-Jul-09 21:04 180 10.0
2020-Jul-09 20:59 180 10.0
2020-Jul-09 20:55 180 10.6
2020-Jul-09 20:49 180 10.6
2020-Jul-09 20:44 180 10.6
2020-Jul-09 20:39 180 10.6
2020-Jul-09 20:34 180 11.1
2020-Jul-09 20:29 180 11.1
2020-Jul-09 20:24 180 11.7
2020-Jul-09 20:19 180 11.7
2020-Jul-09 20:14 180 11.7
2020-Jul-09 20:09 180 12.2
2020-Jul-09 20:04 180 12.2